Zurück zum Katalog

STARLINK-37845

AktivKommunikationVLEO
NORAD 100030·PAYLOAD·🇺🇸 United States

Gestartet Jul 14, 2026 von Cape Canaveral Space Force Station

Loading…

Nächste Überflüge (nächste 24 Stunden)

TLE

AktuellSource: Space-Track

Epoche: Sep 14, 2026, 18:15 UTC

1 A0030U 26161C   26257.76100094  .00024626  00000-0  73733-3 0  9994
2 A0030  53.1617  24.2326 0000808  71.1763 288.9327 15.34410176  9738

Verfolge STARLINK-37845 in Echtzeit mit AllMySat

Download on the App Store